Content
SEND FEEDBACK

Daily
Averages
Monthly
Summary
United States of America

ASHEVILLE, NORTH CAROLINA


Home > North America > United States > North Carolina
Elevation: 2240 feet     Latitude: 35 36N     Longitude: 082 32W

WEATHER
 
SELECT A DAY
Number of Records: 225,562;   Date Range: 1/1/95 - 7/20/14
 
SHARE

PRINT THIS DATA

[ ← Previous Day ]
WEATHER ALMANAC - FEBRUARY 16, 2013
[ Next Day → ]
[ °C ]   °F
Weather ElementAverageHighLow
Temperature30 °F34 °F (2:54 am)23 °F (8:38 pm)
Dewpoint19.2 °F26.1 °F (6:54 am)7 °F (11:54 pm)
Humidity65.1 %86 % (8:48 pm)44 % (3:54 pm)
Barometer29.92 in30.01 in (11:54 pm)29.86 in (1:02 pm)
Wind Speed14.1 mph25.3 mph (4:54 pm)
Wind Gust42.6 mph (4:54 pm)
Weather ElementAverage
Visibility8.5 mi
Wind DirectionNNW (335.8 °)

Weather ElementTotal
Precipitation---
Heating Degree Days36.5 (Base 65)
Averaged from 31 records on February 16, 2013
WEATHER CONDITIONS BREAKOUT
WIND DIRECTION BREAKOUT
WEATHER BY HOUR - FEBRUARY 16, 2013
[ °C ]   °F
Local TimeTemperatureDewpointHumidityBarometerVisibilityWind DirectionWind SpeedGust SpeedPrecipitationEventsConditions
1:54 AM33.1 °F24.1 °F70 %29.96 in10.0 miNNW (340°)9.2 mphOvercast
2:54 AM34.0 °F23.0 °F64 %29.94 in10.0 miNorth (350°)15.0 mph20.7 mphOvercast
3:54 AM33.1 °F25.0 °F72 %29.92 in10.0 miNorth (350°)12.7 mphOvercast
4:54 AM33.1 °F25.0 °F72 %29.91 in10.0 miNorth (350°)10.4 mphOvercast
5:54 AM32.0 °F24.8 °F75 %29.92 in10.0 miNNW (340°)10.4 mphOvercast
6:54 AM32.0 °F26.1 °F79 %29.93 in10.0 miNNW (330°)8.1 mphOvercast
7:54 AM32.0 °F26.1 °F79 %29.93 in10.0 miNNW (340°)8.1 mphOvercast
8:54 AM33.1 °F25.0 °F72 %29.93 in10.0 miNNW (340°)8.1 mphOvercast
9:54 AM33.1 °F24.1 °F70 %29.91 in10.0 miNNW (340°)12.7 mphOvercast
10:54 AM34.0 °F21.9 °F61 %29.91 in10.0 miNNW (330°)12.7 mphOvercast
11:47 AM33.8 °F24.8 °F70 %29.88 in2.0 miNNW (330°)16.1 mph23.0 mph0.00 inSnowSnow
11:54 AM33.1 °F23.0 °F66 %29.90 in2.0 miNNW (340°)16.1 mph0.00 inSnowSnow
12:01 PM33.8 °F21.2 °F60 %29.87 in9.0 miNNW (340°)13.8 mph0.00 inSnowSnow
12:54 PM33.1 °F21.0 °F61 %29.88 in9.0 miNorth (360°)15.0 mph0.00 inSnowSnow
1:02 PM33.8 °F21.2 °F60 %29.86 in9.0 miNorth (350°)12.7 mph0.00 inSnowSnow
1:11 PM33.8 °F21.2 °F60 %29.86 in9.0 miNorth (360°)15.0 mph0.00 inSnowSnow
1:54 PM32.0 °F21.0 °F64 %29.87 in9.0 miNorth (350°)12.7 mph21.9 mph0.00 inSnowSnow
2:54 PM32.0 °F19.0 °F59 %29.86 in8.0 miNNW (340°)20.7 mph33.4 mph0.00 inSnowSnow
3:54 PM32.0 °F12.0 °F44 %29.86 in9.0 miNW (320°)20.7 mph36.8 mph0.00 inSnowSnow
4:54 PM30.0 °F10.9 °F45 %29.88 in9.0 miNW (320°)25.3 mph42.6 mph0.00 inPartly Cloudy
5:54 PM28.0 °F12.9 °F53 %29.90 in10.0 miNNW (340°)24.2 mph35.7 mphPartly Cloudy
6:54 PM26.1 °F10.0 °F51 %29.94 in10.0 miNNW (330°)15.0 mph27.6 mphClear
7:54 PM26.1 °F10.0 °F51 %29.96 in10.0 miNW (320°)19.6 mph32.2 mphPartly Cloudy
8:38 PM23.0 °F17.6 °F80 %29.94 in1.8 miNNW (330°)16.1 mph28.8 mph0.00 inSnowLight Snow
8:48 PM23.0 °F19.4 °F86 %29.95 in2.0 miNNW (330°)15.0 mph23.0 mph0.00 inSnowLight Snow
8:54 PM24.1 °F19.0 °F81 %29.99 in8.0 miNNW (330°)11.5 mph0.00 inSnowLight Snow
9:02 PM24.8 °F19.4 °F80 %29.95 in9.0 miNW (320°)8.1 mph0.00 inSnowLight Snow
9:11 PM24.8 °F17.6 °F74 %29.95 in9.0 miNW (320°)9.2 mph0.00 inSnowLight Snow
9:54 PM25.0 °F12.0 °F58 %30.00 in10.0 miNNW (330°)17.3 mph28.8 mph0.00 inOvercast
10:54 PM25.0 °F9.0 °F51 %30.00 in9.0 miNW (320°)12.7 mph25.3 mph0.00 inOvercast
11:54 PM23.0 °F7.0 °F50 %30.01 in10.0 miNW (320°)13.8 mph24.2 mphScattered Clouds
Hourly data recorded from KAVL, located miles away from Asheville, North Carolina







STORIES FROM OUR PARTNERS